GFSFLT2_500_rhum_057.txt.gz
RH
96 96 97 99 97 91 90 85 88 83 77 71 96 92 92 94 97 96 94 88 91 53 26 14 18 15 26 36 36 38 25 16
94 89 96 96 98 93 96 95 88 95 99 94 92 95 94 98 97 96 95 96 95 90 57 21 20 26 38 42 45 43 27 11
80 91 98 95 96 94 93 94 98 96 78 86 96 95 95 96 97 96 96 96 85 26 47 22 34 41 50 48 49 44 27 10
84 82 68 79 70 65 72 98 96 91 87 81 96 95 96 95 97 96 53 56 54 71 35 40 52 47 43 52 38 21 9 9
86 70 60 52 58 53 54 86 96 98 96 96 94 97 97 96 94 65 93 86 53 58 43 49 53 40 28 22 12 10 11 12
63 50 50 45 58 97 76 96 95 97 97 98 96 95 96 97 95 95 92 79 65 53 62 61 61 25 13 10 11 12 12 11
42 40 49 47 47 96 96 92 97 96 98 96 95 97 97 95 94 96 71 68 62 67 39 25 18 13 12 12 13 13 11 12
38 46 72 66 98 84 95 96 87 85 99 96 96 96 96 94 94 80 77 76 74 44 20 14 14 13 13 14 12 11 10 10
79 83 90 98 84 80 91 92 88 94 97 98 97 94 89 95 96 77 69 80 34 16 16 16 14 13 14 13 11 12 11 10
75 100 98 98 91 98 97 96 96 97 95 95 81 84 98 91 73 48 37 34 16 17 17 14 14 14 13 11 13 14 14 10
81 93 97 98 97 96 97 94 91 95 96 86 85 91 100 76 64 63 55 19 19 17 14 14 14 12 14 16 15 13 13 12
55 60 62 66 76 76 80 89 96 100 97 91 97 98 97 82 67 33 21 22 18 15 15 16 20 29 27 15 12 11 12 22
39 43 47 50 58 62 62 56 51 54 51 52 88 98 96 70 28 24 21 19 21 36 32 40 40 39 35 27 17 14 25 45
38 30 38 66 69 59 52 43 45 53 55 53 78 94 95 55 30 36 20 30 43 49 46 56 51 48 28 17 24 25 19 39
40 34 25 24 22 28 48 59 54 68 64 54 61 100 97 96 94 79 70 61 74 70 74 78 63 59 54 48 53 43 65 69
26 25 22 22 21 24 51 66 73 92 73 46 56 67 97 98 98 98 98 82 79 81 86 89 78 50 57 48 30 49 76 87
22 22 23 22 22 28 39 60 70 66 69 46 45 56 83 72 73 92 98 100 97 98 93 92 73 69 58 30 35 84 98 99
40 37 35 33 33 39 40 69 58 62 64 56 43 30 47 79 82 87 95 99 98 99 93 83 68 77 86 68 85 98 100 57
42 41 37 47 76 58 60 67 80 82 94 96 83 84 61 63 86 98 100 98 99 99 87 98 100 99 97 100 82 100 74 99
55 57 55 54 65 87 96 97 92 90 92 88 66 53 58 83 93 92 98 97 95 95 99 98 100 98 100 88 64 64 86 56

GFSFLT2_500_rhum_060.txt.gz
RH
97 96 87 81 96 96 91 82 80 82 78 70 85 81 90 96 84 92 90 93 96 96 86 84 39 22 16 21 33 37 41 36
90 93 96 95 96 96 95 94 93 96 92 92 84 92 96 90 96 95 95 84 92 90 96 84 51 25 26 33 40 50 48 41
80 82 86 95 96 97 96 97 97 96 94 93 86 86 88 90 96 96 96 96 95 98 96 82 61 55 44 42 48 54 44 26
60 69 76 87 88 94 93 93 91 87 96 94 93 84 94 96 90 96 95 97 96 82 36 62 35 50 47 49 56 46 17 9
50 61 83 82 63 72 65 58 83 80 98 96 98 97 98 97 96 97 96 89 96 66 55 59 62 52 53 32 23 9 10 10
37 82 78 63 50 51 67 56 96 77 90 97 97 96 70 100 96 96 96 96 90 77 82 68 59 68 56 14 9 10 10 9
29 73 58 53 47 56 52 60 88 97 96 94 89 78 99 98 96 96 97 92 97 86 70 68 35 23 14 9 10 10 7 9
41 39 51 42 42 68 92 96 97 96 96 92 79 95 99 98 96 96 88 94 90 83 75 27 14 12 10 11 12 11 10 11
41 41 41 44 86 71 97 94 99 93 88 95 91 95 97 98 96 82 95 99 98 79 34 15 13 11 12 13 12 14 12 11
49 46 62 99 99 97 97 93 70 83 97 92 98 100 97 96 87 97 93 73 48 24 15 13 13 12 12 12 17 19 9 8
78 86 94 96 95 99 97 93 84 96 97 95 96 95 94 96 93 66 54 52 28 16 15 14 12 13 16 27 30 29 30 23
54 56 80 100 100 97 96 92 95 94 93 92 94 96 93 96 79 75 62 37 16 16 16 16 32 30 30 44 42 31 19 20
31 20 35 47 48 42 46 60 41 42 41 48 70 88 98 96 95 72 32 19 17 19 21 26 44 42 45 48 50 50 49 25
36 33 24 21 18 20 24 26 22 23 43 56 65 90 98 98 94 79 50 41 25 20 36 66 68 66 78 63 55 44 34 25
35 31 22 19 18 16 18 37 51 48 51 62 60 60 97 97 96 84 80 82 92 94 84 77 83 72 96 84 66 55 21 34
20 19 20 19 15 14 15 24 48 60 63 75 42 44 52 64 94 98 97 98 96 98 93 90 90 88 81 100 92 55 53 74
19 19 20 21 21 24 25 30 41 42 49 58 57 35 34 45 69 67 90 84 86 89 100 98 83 65 59 77 88 90 88 91
35 36 37 29 29 45 59 44 29 50 67 75 76 80 65 55 82 71 60 72 85 93 97 89 80 99 99 87 96 90 100 100
75 57 50 46 44 64 63 59 63 71 87 91 98 93 69 57 81 78 80 98 100 100 99 97 94 100 99 99 100 100 100 100
77 71 55 50 54 58 62 66 96 92 96 61 43 74 89 66 91 94 92 96 97 96 96 72 98 99 100 92 100 100 95 99

GFSFLT2_500_rhum_063.txt.gz
RH
94 96 96 97 96 94 93 75 95 82 95 89 93 91 78 79 76 86 85 94 99 95 94 96 96 72 44 38 25 28 33 43
96 94 96 96 98 98 96 96 97 97 80 84 92 89 86 88 83 80 95 96 96 91 90 95 96 86 46 24 36 42 46 47
71 74 82 89 95 95 97 96 89 80 70 85 94 100 91 94 91 89 96 95 95 95 96 93 91 72 35 49 52 46 53 44
40 49 53 68 91 94 94 96 97 91 94 96 97 95 92 89 96 96 96 97 96 96 94 93 80 57 43 52 47 47 47 22
40 47 44 50 74 84 86 93 93 94 96 96 96 95 94 94 96 94 96 97 96 95 95 75 58 49 63 50 37 27 14 10
42 44 37 47 57 58 66 59 47 48 79 86 90 96 96 96 98 80 97 99 96 95 81 61 64 73 56 56 18 12 10 10
36 34 32 59 47 55 45 36 43 64 87 87 96 84 87 81 95 95 96 98 95 80 82 89 78 52 43 34 11 11 10 10
26 24 32 54 52 46 35 35 58 95 89 89 96 95 93 91 94 95 98 94 87 97 93 77 45 23 15 12 9 9 10 7
17 20 28 39 45 37 39 38 64 81 89 97 90 86 86 92 99 100 98 93 98 100 91 59 20 14 12 11 11 10 8 14
31 26 25 27 30 59 66 76 82 88 96 94 84 87 86 92 100 96 90 93 98 95 67 24 15 13 11 13 12 12 14 14
38 40 26 32 60 84 74 73 86 89 94 98 90 81 92 98 99 92 91 84 55 44 24 16 16 14 14 22 29 31 28 20
56 62 61 80 90 88 90 84 88 87 80 84 97 100 96 97 94 74 64 69 64 40 16 16 16 16 36 41 42 48 53 47
19 30 44 61 67 81 74 72 74 74 80 94 97 96 98 98 95 87 94 92 46 22 17 15 16 24 48 58 70 71 75 71
34 26 18 13 13 14 21 21 21 24 27 33 48 61 84 96 96 99 98 63 34 25 20 24 54 76 78 73 66 67 70 75
18 15 12 12 12 10 11 18 29 36 41 48 45 52 64 88 92 96 98 94 70 84 89 93 90 94 97 96 69 66 52 57
14 14 14 14 13 11 12 19 25 32 38 52 56 41 42 52 56 88 95 93 94 97 98 90 93 84 97 94 64 76 91 80
21 28 30 25 18 17 20 20 26 20 35 43 47 45 37 34 46 53 66 76 64 66 88 94 83 99 99 93 88 100 100 98
29 33 32 28 30 38 54 47 38 53 64 68 72 80 83 94 85 75 76 84 86 86 92 89 89 92 86 78 85 100 99 81
46 32 26 28 30 38 46 44 44 56 72 79 82 59 85 89 97 99 99 100 88 82 92 94 80 74 63 48 98 98 77 88
38 33 25 17 21 32 29 36 39 62 70 76 43 64 55 50 70 97 98 95 62 46 55 67 47 37 45 72 97 94 83 75

GFSFLT2_500_rhum_069.txt.gz
RH
69 85 91 90 82 81 90 97 97 95 95 97 87 76 69 65 60 80 78 79 75 75 77 80 74 62 84 94 95 76 26 28
89 95 95 95 98 95 95 96 96 95 97 97 97 87 74 67 70 85 90 85 71 72 84 87 95 76 77 93 82 32 36 32
90 94 97 96 96 95 94 96 96 96 93 83 71 72 63 65 80 94 95 93 78 83 99 94 99 94 96 90 72 58 36 41
69 70 68 80 85 93 96 96 96 97 95 81 76 82 66 85 92 97 96 86 95 84 98 98 84 89 96 93 72 43 53 46
60 51 43 44 57 86 94 97 96 96 96 94 96 90 69 91 97 94 99 95 89 96 97 96 93 96 96 88 74 55 52 44
41 35 36 37 46 67 90 90 92 94 95 97 96 96 97 97 95 98 95 94 98 96 89 84 97 99 94 78 53 52 44 41
42 41 41 38 46 47 91 81 86 96 100 95 94 97 97 96 96 95 74 95 94 90 91 79 99 87 67 52 60 47 38 26
53 48 41 42 43 40 90 87 90 74 69 95 94 96 94 97 91 85 86 93 78 91 92 85 95 71 56 64 61 42 30 17
53 41 35 33 35 43 98 90 85 65 58 72 92 86 93 94 94 100 93 99 91 86 84 93 76 76 70 56 46 33 20 15
45 32 27 52 46 96 90 92 84 67 59 76 91 97 99 88 82 99 98 100 84 82 98 90 84 70 48 31 21 19 16 14
42 35 51 62 46 79 73 70 71 58 60 78 99 100 99 92 93 100 100 89 82 98 97 90 83 58 26 21 22 18 17 29
41 40 38 61 50 51 66 69 73 97 83 94 100 100 96 96 97 100 93 86 96 99 100 96 87 46 22 23 20 17 31 35
47 50 72 62 75 69 84 90 95 92 96 98 96 95 93 94 95 94 97 100 100 97 100 97 76 32 20 20 18 16 16 24
17 38 61 66 67 62 58 62 80 95 90 95 90 93 96 96 93 94 96 100 98 98 87 71 69 29 23 21 21 24 33 60
16 13 12 14 21 34 43 55 67 72 79 86 97 94 91 94 94 95 99 93 79 88 97 70 46 25 21 21 33 52 61 60
14 11 10 8 14 26 29 23 28 39 59 71 76 80 87 99 98 100 96 88 89 96 99 87 43 54 52 40 43 50 50 48
11 12 10 9 10 20 24 30 38 45 52 48 41 57 65 83 90 83 84 88 90 92 88 79 80 75 64 62 59 56 55 58
19 21 22 19 17 14 18 22 23 27 37 44 52 49 44 41 41 44 42 56 58 54 61 83 92 79 68 55 46 41 46 54
41 36 29 26 25 25 29 38 44 42 49 53 57 53 57 66 59 49 53 72 79 86 92 98 90 79 55 30 23 18 13 8
42 42 40 43 40 33 24 31 39 46 55 74 77 83 76 69 75 93 93 93 100 99 100 100 75 41 33 31 18 10 9 7

GFSFLT2_500_rhum_075.txt.gz
RH
88 97 94 96 97 96 92 96 97 94 96 85 88 92 93 97 85 67 65 65 73 76 85 78 81 86 82 87 96 90 74 82
98 97 96 91 93 97 94 93 90 96 89 93 82 94 95 96 84 69 60 63 69 70 78 88 91 88 91 88 90 97 84 95
90 97 96 96 88 81 90 88 86 91 96 94 91 95 95 97 97 88 69 65 66 78 84 92 95 94 97 88 94 100 92 92
86 90 83 95 77 74 64 54 77 88 86 96 93 98 97 97 96 90 76 75 70 78 84 92 93 95 96 92 93 94 99 98
71 79 85 84 66 54 48 77 98 98 100 89 95 98 98 97 96 94 83 79 74 74 97 94 90 97 98 95 94 95 99 83
36 42 59 55 51 46 45 93 97 96 95 98 98 97 98 97 94 94 90 80 77 88 94 93 96 96 96 97 96 87 95 92
25 36 43 44 44 42 44 95 95 97 97 97 97 97 98 96 97 96 92 76 76 90 96 97 99 91 97 98 95 97 98 90
23 30 40 48 54 45 43 94 97 97 97 95 96 99 96 95 96 96 90 88 80 98 96 97 93 97 100 97 96 97 95 89
36 55 64 65 61 50 38 90 97 97 96 96 97 96 96 96 96 96 94 91 94 98 96 93 96 98 99 96 98 93 84 75
51 54 47 48 49 44 42 65 95 95 96 98 98 98 97 98 97 100 98 97 96 98 92 94 96 96 98 98 88 83 75 80
54 46 41 47 40 39 38 44 82 97 96 97 96 97 97 93 96 96 97 96 97 95 94 96 94 95 100 97 87 87 86 81
47 41 43 63 71 63 58 50 82 97 95 96 94 95 97 95 95 96 96 97 97 96 97 94 91 91 93 94 96 93 65 37
28 39 50 88 78 72 74 100 94 95 89 81 82 90 97 97 97 96 97 97 100 96 92 93 94 96 98 94 82 58 52 42
17 36 71 86 97 99 97 91 97 96 91 88 73 78 86 99 96 96 96 95 95 98 96 95 97 97 96 97 93 90 74 32
19 14 31 65 90 96 78 72 86 86 87 80 72 90 97 98 95 97 97 97 96 97 99 94 95 97 99 98 95 51 28 25
19 12 9 10 29 50 60 65 65 74 98 90 99 98 96 98 95 94 98 98 97 97 96 98 97 98 94 85 68 45 25 23
13 12 12 10 8 14 20 33 55 76 96 97 97 97 97 97 96 97 97 96 94 100 91 93 95 91 95 89 75 49 36 46
18 18 19 18 18 12 12 23 22 48 72 66 59 58 58 62 65 65 72 73 74 72 79 84 92 93 100 95 92 71 66 77
48 31 30 27 26 24 21 20 19 21 24 26 28 30 42 62 77 81 76 74 73 73 75 68 76 76 88 75 57 64 72 80
45 43 41 38 37 38 34 30 22 36 38 35 32 40 40 41 43 46 61 74 71 70 77 73 60 56 61 68 82 97 100 100

GFSFLT2_500_rhum_078.txt.gz
RH
76 85 92 72 82 87 88 89 96 97 92 96 84 90 80 96 97 95 93 83 63 55 61 64 74 75 77 78 78 91 90 82
68 97 95 88 72 71 77 81 95 96 94 96 96 89 84 96 96 94 83 88 71 62 59 70 77 70 81 85 82 83 86 90
59 93 97 96 86 90 93 95 84 82 96 96 97 96 98 86 95 97 81 88 72 65 63 70 74 71 82 90 92 87 89 96
66 66 93 93 96 95 92 79 79 76 91 96 97 96 90 93 96 97 78 80 76 67 64 67 76 77 91 93 94 87 88 89
39 51 64 84 96 97 67 56 54 68 98 97 96 97 96 95 96 92 82 89 81 66 67 76 70 82 85 89 95 94 86 81
22 32 35 38 55 57 46 54 51 88 98 96 96 96 97 98 96 98 97 92 80 73 66 73 82 92 86 94 91 87 87 86
36 29 33 37 41 40 40 42 56 96 96 96 96 91 97 96 97 97 96 93 80 71 67 84 91 94 93 97 85 85 93 90
47 43 23 28 38 40 42 37 66 95 95 96 97 96 97 96 96 97 95 94 89 83 70 85 83 98 95 96 88 92 93 92
29 24 27 49 52 49 56 46 67 90 97 97 97 96 97 96 94 94 96 96 94 88 74 78 94 98 91 88 89 90 95 94
29 33 45 54 45 39 42 44 67 96 98 98 97 97 97 96 97 96 96 96 96 95 95 100 99 97 91 86 87 95 95 98
40 34 49 42 35 32 32 45 68 94 97 97 94 95 96 96 96 96 97 96 95 96 98 97 98 96 93 88 88 93 90 89
52 46 35 33 32 30 36 39 64 84 96 96 98 97 96 95 96 97 97 84 86 97 97 98 96 95 84 88 91 92 89 88
27 33 35 39 46 41 45 40 44 76 95 96 96 97 96 97 97 97 96 92 96 96 97 98 94 86 94 94 94 95 94 94
19 24 64 61 78 72 68 71 98 97 97 96 96 96 96 97 97 96 97 92 94 99 96 93 90 93 95 96 94 97 94 87
24 12 31 68 92 88 89 82 83 90 95 96 96 95 96 94 94 96 97 96 96 97 95 94 94 96 95 97 98 98 95 83
21 12 10 10 39 56 66 68 56 76 96 90 98 99 94 97 95 92 94 94 98 98 94 94 90 93 95 96 96 100 100 100
10 10 10 14 7 12 19 36 61 55 66 84 93 99 94 94 92 99 92 91 96 96 97 96 86 86 87 88 93 97 100 91
24 21 17 16 14 8 8 16 19 48 69 67 89 80 87 93 88 94 95 94 98 96 97 89 83 80 93 94 84 86 96 94
26 33 25 22 22 22 17 10 10 16 29 35 35 43 50 56 56 61 62 63 73 92 92 99 83 72 75 85 86 99 99 95
36 32 33 33 31 30 30 26 19 19 18 19 21 24 27 29 38 38 45 49 62 65 87 97 83 72 74 70 72 80 77 68